SITRO-AIS 25

Last updated on Sat Aug 15 2026 00:03:45 GMT+0000 (Coordinated Universal Time)

1 59066U 24039R 26226.59365089 .00002025 00000+0 15706-3 0 9997 2 59066 95.3860 275.2218 0145798 123.3313 238.1970 14.93828941133440
UTC large
Height (km)
Speed (km/s)
/
Latitude / Longitude
Inclination (degrees)
Orbital Period (minutes)
Azimuth
Elevation
Range (km)
Doppler Factor

Next 0 passes for location: London (51.5072 / 0.1276)

No passes found over London.
SITRO-AIS 25